Regional Weather Roundup
Issued by NWS

Home | Current Version | Previous Version | Text Only | Print | Product List | Glossary On
Versions: 1 2 3 4 5 6 7 8 9 10 11 12 13 14 15 16 17 18 19 20 21 22 23 24 25 26 27 28 29 30 31 32 33 34 35 36 37 38 39 40 41 42 43 44 45 46 47 48 49 50
000
ASUS42 KFFC 301903
RWRGA
WEATHER ROUNDUP FOR GEORGIA
NATIONAL WEATHER SERVICE PEACHTREE CITY GA
300 PM EDT SAT APR 30 2016

NOTE: "FAIR" INDICATES FEW OR NO CLOUDS BELOW 12,000 FEET WITH NO
SIGNIFICANT WEATHER AND/OR OBSTRUCTIONS TO VISIBILITY.

* = USE WITH CAUTION. THE STATIONS MARKED WITH AN ASTERISK MAY NOT
REPORT WEATHER SUCH AS PRECIPITATION, FOG, OR THUNDER AND ARE NOT
QUALITY CONTROLLED BY NWS.

THE REMARK "TC" DENOTES TEMPERATURE READING IN DEGREES CELSIUS.

GAZ001>058-302000-
NORTH GEORGIA

CITY           SKY/WX    TMP DP  RH WIND       PRES   REMARKS
ATLANTA        CLOUDY    79  64  60 SW7       29.95F
ATHENS         PTSUNNY   80  71  74 VRB3      29.96F
CHAMBLEE       CLOUDY    82  64  54 SE14G22   29.95F
PEACHTREE CITY MOSUNNY   84  70  62 S8        29.94F
ROME           CLOUDY    87  64  46 S10       29.89F
WEST ATLANTA   MOSUNNY   83  60  45 S13G22    29.94S
GAINESVILLE    PTSUNNY   78  68  71 E9        29.99F
CARTERSVILLE   CLOUDY    86  62  44 S8G17     29.92F


CITY           SKY/WX    TMP DP  RH WIND       PRES   REMARKS
DALTON*        PTSUNNY   81  64  57 S8        29.94S
LAWRENCEVILLE* LGT RAIN  82  63  51 S12G21    29.97F
KENNESAW*      PTSUNNY   84  63  48 W8        29.88F
CANTON*        CLOUDY    86  48  26 S7        29.97F
BLAIRSVILLE*     N/A    N/A N/A N/A MISG      30.00S
$$

GAZ059>098-102>109-302000-
CENTRAL GEORGIA

CITY           SKY/WX    TMP DP  RH WIND       PRES   REMARKS
AUGUSTA-BUSH   PTSUNNY   87  63  44 S10       29.97F
AUGUSTA-DANIEL CLOUDY    87  61  41 SE10      29.99F
COLUMBUS       CLOUDY    85  66  53 S9        29.90F
MACON          CLOUDY    82  63  52 NW10      29.95F
ROBINS AFB     CLOUDY    85  65  51 SE8       29.94F


CITY           SKY/WX    TMP DP  RH WIND       PRES   REMARKS
LAGRANGE*      CLOUDY    86  71  61 SW7       29.92F HX  91
SYLVANIA*      MOSUNNY   88  68  51 SE8       30.01S HX  91
MILLEDGEVILLE* CLOUDY    88  63  42 CALM      29.95F
$$

GAZ099>101-110>166-302000-
SOUTH GEORGIA

CITY           SKY/WX    TMP DP  RH WIND       PRES   REMARKS
SAVANNAH       PTSUNNY   87  64  46 S15G22    30.01S
VALDOSTA       MOSUNNY   87  70  56 SE7       29.94F HX  92
ALMA           SUNNY     89  58  34 VRB6      29.97F
ST SIMONS      SUNNY     80  72  76 SE10      30.00F
FT STEWART     MOSUNNY   89  58  35 E16G23    29.96F
ALBANY         CLOUDY    89  65  44 S10       29.95F HX  91
HUNTER AFB     MOSUNNY   84  70  64 SE12G17   29.99F
MOODY AFB      LGT RAIN  87  66  49 VRB3      29.94F
BRUNSWICK      SUNNY     88  68  51 E14       30.00F HX  91


CITY           SKY/WX    TMP DP  RH WIND       PRES   REMARKS
BAINBRIDGE*    MOSUNNY   86  66  51 S8G16     29.94F
MOULTRIE*      CLOUDY    88  64  45 S6        29.95F
VIDALIA*       MOSUNNY   90  59  35 SE12G21   29.99S
WAYCROSS*      MOSUNNY   89  61  39 SE5       29.97S
DOUGLAS*       MOSUNNY   90  61  37 S7        29.96F
$$



USA.gov is the U.S. government's official web portal to all federal, state and local government web resources and services.